Location: �terpigny
(49.8910°N, 2.9249°E)
Time: 10:19:50
(UTC+00:00)

DIWATA 2B (PO-101) - Pass Details

Date: 01 July 2022
Orbit: 583 x 599 km, 98.0° (Epoch: 14 August)

Event Time Altitude Azimuth Distance (km) Brightness Sun altitude
Exits shadow 00:03:03 - 114° (ESE) 2,726 ? -16.9°
Reaches altitude 10° 00:05:41 10° 92° (E) 1,944 ? -16.9°
Maximum altitude 00:08:03 15° 58° (ENE) 1,647 ? -16.9°
Drops below altitude 10° 00:10:26 10° 23° (NNE) 1,952 ? -16.9°
Sets 00:13:25 0° 1° (N) 2,860 ? -16.8°
